Starlink 30790

operational
NORAD ID: 58127 Int'l Des: 2023-162 Owner: SPXS Country: US Constellation: starlink
LEOCIRCULAR

About Starlink 30790

Description loading...

Live Position

Loading 3D Globe...

Upcoming Passes

Altitude History

Altitude vs Time

uPlot chart will show altitude changes over time

Two-Line Element Set

1 58127U 23162K 25349.96931651 .00020949 00000-0 14391-2 0 9994
2 58127 43.0014 227.3814 0004162 227.3419 132.7074 15.05588471119712
Epoch: Dec 15, 2025 • Age: 20 hours

Current Status

Altitude 552.6 km
Velocity 7.59 km/s
Sub-Earth Point 36.98°N, 19.59°W
Launch Date Oct 22, 2023
Age 2.1 years
Type internet

Technical Details

Classification Payload
Mass 730.00 kg
Dry Mass 700.00 kg
Total Mass 730.00 kg
Length 0.30 m
Diameter 4.10 m
Span 29.00 m
Shape Box + pan
Manufacturer SPXS
Bus Type Starlink V2M
Phase Status In Orbit
Owner/State SPXS/US

Large Constellations

Loading constellations...